Regional Weather Roundup
Issued by NWS State College, PA

Home | Current Version | Previous Version | Text Only | Print | Product List | Glossary On
Versions: 1 2 3 4 5 6 7 8 9 10 11 12 13 14 15 16 17 18 19 20 21 22 23 24 25 26 27 28 29 30 31 32 33 34 35 36 37 38 39 40 41 42 43 44 45 46 47 48 49 50
129
ASUS41 KCTP 310810
RWRCTP

REGIONAL WEATHER ROUNDUP
NATIONAL WEATHER SERVICE STATE COLLEGE PA
400 AM EDT SUN JUL 31 2016

Note: "fair" indicates few or no clouds below 12,000 feet with no
significant weather and/or obstructions to visibility.

* = STATION THAT DOES NOT REPORT PRECIPITATION /E.G. RAIN...SNOW...ETC/
    THUNDER OR FOG.

PAZ002>004-007>009-013>016-020>023-029>032-310900-
WESTERN PENNSYLVANIA

CITY           SKY/WX    TMP DP  RH WIND       PRES   REMARKS
ERIE           CLOUDY    70  65  84 E3        29.95F
MEADVILLE      CLOUDY    65  64  97 E6        29.99S
FRANKLIN*      CLOUDY    64  63  94 E5        30.00F
NEW CASTLE     FOG       70  68  94 CALM      29.97F VSB 3/4
BEAVER COUNTY  NOT AVBL
BUTLER*        CLEAR     68  66  94 CALM      30.00S
PITTSBURGH INT PTCLDY    65  63  93 CALM      29.98R FOG
PITTSBURGH     MOCLDY    68  65  90 S3        29.98R FOG
INDIANA*       CLOUDY    68  68 100 CALM      30.02S FOG
LATROBE        MOCLDY    68  68 100 CALM      29.99S FOG
WASHINGTON CO* CLOUDY    64  63  94 CALM      29.99R VSB 1/4
$$

PAZ004>006-010>012-017>019-024>028-033>037-041-042-045-046-049>053-310900-
CENTRAL PENNSYLVANIA

CITY           SKY/WX    TMP DP  RH WIND       PRES   REMARKS
BRADFORD       CLOUDY    66  63  90 CALM      30.03S
DUBOIS         CLOUDY    67  64  90 CALM      30.00S FOG
CLEARFIELD     NOT AVBL
JOHNSTOWN      FOG       66  63  90 SW7       30.02S VSB 1/2
ALTOONA        FOG       68  68 100 CALM      29.99S VSB 1/4
STATE COLLEGE  CLOUDY    68  68  99 NE3       29.98S FOG
WILLIAMSPORT   CLOUDY    71  67  87 E8        29.95S
SELINSGROVE    CLOUDY    71  71 100 CALM      29.96S
FT INDIANTOWN  CLOUDY    70  70 100 N2        29.96S
CAPITAL CITY   CLOUDY    73  69  87 E3        29.95S
HARRISBURG     CLOUDY    72  72 100 SE5       29.95S
YORK           MOCLDY    70  69  97 CALM      29.96S
$$

PAZ038>040-043-044-047-048-054-055-060>062-067>071-310900-
EASTERN PENNSYLVANIA

CITY           SKY/WX    TMP DP  RH WIND       PRES   REMARKS
SCRANTON       CLOUDY    70  68  93 NE5       29.99F
MOUNT POCONO   CLOUDY    67  66  97 SE7       30.04S
ALLENTOWN      CLOUDY    73  72  94 E8        29.97F FOG
QUAKERTOWN*    CLOUDY    73  73 100 CALM      29.99S
READING        MOCLDY    72  70  93 CALM      29.95S FOG
LANCASTER      MOCLDY    70  70 100 CALM      29.96S FOG
COATESVILLE    CLOUDY    72  72 100 CALM      29.99S FOG
POTTSTOWN      CLOUDY    72  71  97 CALM      29.98S
BLUE BELL      CLOUDY    72  72 100 NE3       29.96S
DOYLESTOWN     CLOUDY    72  72 100 CALM      29.97S
WILLOW GROVE   NOT AVBL
NORTH PHILA    CLOUDY    76  74  93 SE6       29.98R
PHILADELPHIA   CLOUDY    75  73  94 E8        29.95S
$$




USA.gov is the U.S. government's official web portal to all federal, state and local government web resources and services.